User: anonymous   Login
Location: *
(43.0833°N, 13.0500°E)
Time: 14:55:11
(UTC+00:00)
Language:

Cosmos 1680 Rocket - Orbit

View from above orbital plane
View from above orbital plane
View from above satellite
View from above satellite

Ground track
Ground track

The orbit data is extracted from the following two-line orbital elements,

1 16012U 85079B   20024.84214901  .00000129  00000-0  53136-4 0  9990
2 16012  74.0580 189.5509 0015582 218.9771 141.0261 14.36345623800425
Epoch (UTC): 24 January 2020 20:12:41
Eccentricity: 0.0015582
inclination: 74.0580°
perigee height: 759 km
apogee height: 782 km
right ascension of ascending node: 189.5509°
argument of perigee: 218.9771°
revolutions per day: 14.36345623
mean anomaly at epoch: 141.0261°
orbit number at epoch: 80042

The dashed part of the orbit path shows where the satellite is in the earth's shadow,  

DLR